TimeCST,TemperatureF,Dew PointF,Humidity,Sea Level PressureIn,VisibilityMPH,Wind Direction,Wind SpeedMPH,Gust SpeedMPH,PrecipitationIn,Events,Conditions,WindDirDegrees,DateUTC
12:15 AM,71.6,66.2,83,30.11,10.0,WSW,3.5,-,N/A,,Unknown,250,2012-12-05 06:15:00
12:35 AM,69.8,66.2,88,30.11,10.0,NW,10.4,-,N/A,Thunderstorm,Unknown,310,2012-12-05 06:35:00
12:55 AM,69.8,64.4,83,30.11,7.0,North,16.1,26.5,0.04,Thunderstorm,Thunderstorm,360,2012-12-05 06:55:00
8:35 AM,65.3,58.3,78,30.20,10.0,North,12.7,-,N/A,,Unknown,350,2012-12-05 14:35:00
8:55 AM,65.7,57.0,74,30.21,10.0,NNW,10.4,-,N/A,,Unknown,340,2012-12-05 14:55:00
9:15 AM,66.7,56.7,70,30.21,10.0,NNW,10.4,-,N/A,,Unknown,330,2012-12-05 15:15:00
9:35 AM,67.1,56.1,68,30.21,10.0,North,10.4,-,N/A,,Unknown,350,2012-12-05 15:35:00
9:55 AM,68.4,56.1,65,30.21,10.0,North,6.9,-,N/A,,Unknown,10,2012-12-05 15:55:00
10:15 AM,70.0,56.1,61,30.21,10.0,North,8.1,-,N/A,,Unknown,350,2012-12-05 16:15:00
10:35 AM,70.3,55.0,58,30.21,10.0,NNW,9.2,-,N/A,,Unknown,340,2012-12-05 16:35:00
10:55 AM,71.2,54.3,55,30.21,10.0,NNW,5.8,-,N/A,,Unknown,330,2012-12-05 16:55:00
11:15 AM,72.3,53.6,52,30.20,10.0,NW,9.2,-,N/A,,Unknown,320,2012-12-05 17:15:00
11:35 AM,74.1,54.3,50,30.19,10.0,NNW,8.1,-,N/A,,Unknown,340,2012-12-05 17:35:00
11:55 AM,74.8,54.7,49,30.18,10.0,NNW,9.2,-,N/A,,Unknown,330,2012-12-05 17:55:00
12:15 PM,75.6,54.7,48,30.16,10.0,NNW,6.9,-,N/A,,Unknown,330,2012-12-05 18:15:00
12:35 PM,76.1,54.7,47,30.15,10.0,NNW,6.9,-,N/A,,Unknown,340,2012-12-05 18:35:00
12:55 PM,77.4,53.8,44,30.13,10.0,NW,9.2,-,N/A,,Unknown,310,2012-12-05 18:55:00
1:15 PM,77.7,51.8,40,30.12,10.0,North,10.4,-,N/A,,Unknown,350,2012-12-05 19:15:00
1:35 PM,78.8,50.7,37,30.10,10.0,North,9.2,-,N/A,,Unknown,350,2012-12-05 19:35:00
1:55 PM,79.2,49.6,35,30.09,10.0,NNW,8.1,-,N/A,,Unknown,330,2012-12-05 19:55:00
2:15 PM,79.3,48.4,34,30.07,10.0,NNW,8.1,-,N/A,,Unknown,340,2012-12-05 20:15:00
2:35 PM,79.0,47.5,33,30.06,10.0,NNW,9.2,-,N/A,,Unknown,330,2012-12-05 20:35:00
2:55 PM,79.3,47.1,32,30.06,10.0,North,10.4,17.3,N/A,,Unknown,360,2012-12-05 20:55:00
3:15 PM,79.7,47.1,32,30.06,10.0,North,6.9,-,N/A,,Unknown,350,2012-12-05 21:15:00
3:35 PM,79.2,46.6,32,30.05,10.0,North,6.9,-,N/A,,Unknown,360,2012-12-05 21:35:00
3:55 PM,78.8,46.0,31,30.05,10.0,NNW,5.8,-,N/A,,Unknown,340,2012-12-05 21:55:00
4:15 PM,79.0,46.6,32,30.05,10.0,North,4.6,-,N/A,,Unknown,360,2012-12-05 22:15:00
4:35 PM,77.9,48.4,35,30.04,10.0,NE,5.8,-,N/A,,Unknown,40,2012-12-05 22:35:00
4:55 PM,76.5,50.2,40,30.04,10.0,NE,5.8,-,N/A,,Unknown,40,2012-12-05 22:55:00
5:15 PM,75.2,51.1,43,30.04,10.0,NE,5.8,-,N/A,,Unknown,50,2012-12-05 23:15:00
5:35 PM,72.9,52.7,49,30.04,10.0,NE,4.6,-,N/A,,Unknown,40,2012-12-05 23:35:00
5:55 PM,69.8,53.8,57,30.04,10.0,NE,3.5,-,N/A,,Unknown,40,2012-12-05 23:55:00
6:15 PM,69.6,54.7,59,30.04,10.0,NE,3.5,-,N/A,,Unknown,40,2012-12-06 00:15:00
6:35 PM,68.9,55.0,61,30.05,10.0,Calm,Calm,-,N/A,,Unknown,0,2012-12-06 00:35:00
6:55 PM,67.5,54.0,62,30.05,10.0,NE,3.5,-,N/A,,Unknown,50,2012-12-06 00:55:00
7:15 PM,66.0,54.5,66,30.05,10.0,NE,3.5,-,N/A,,Unknown,50,2012-12-06 01:15:00
7:35 PM,66.6,54.9,66,30.06,10.0,East,6.9,-,N/A,,Unknown,90,2012-12-06 01:35:00
7:55 PM,66.4,57.2,72,30.06,10.0,East,3.5,-,N/A,,Unknown,100,2012-12-06 01:55:00
8:15 PM,65.7,57.6,75,30.07,10.0,East,4.6,-,N/A,,Unknown,90,2012-12-06 02:15:00
8:35 PM,64.9,57.7,77,30.07,10.0,East,4.6,-,N/A,,Unknown,100,2012-12-06 02:35:00
8:55 PM,64.4,57.7,79,30.07,10.0,ESE,4.6,-,N/A,,Unknown,110,2012-12-06 02:55:00
9:15 PM,63.5,57.6,81,30.07,10.0,SE,3.5,-,N/A,,Unknown,130,2012-12-06 03:15:00